Flag for Norway Weather past 2 weeks in Sarpsborg, Norway

Now
48 °F

Passing clouds.


Feels Like: 42 °F
Forecast: 41 / 48 °F
Wind: 15 mph from East

Location: Rygge

Current Time: Oct 21, 2014 at 9:52:23 PM

Latest Report: Oct 21, 2014 at 9:20 PM


Visibility: N/A

Pressure: 29.47 "Hg

Humidity: 94%

Dew point: 46 °F

Location of SarpsborgLocation

Historic Weather in Sarpsborg — Graph

°F

Sarpsborg temperature yesterday

Maximum temperature yesterday: 61 °F (at 3:50 PM)
Minimum temperature yesterday: 45 °F (at 10:20 PM)
Average temperature yesterday: 53 °F

Past Weeks' High & Low Weather Summary

 TemperatureHumidityPressure
High61 °F (Oct 20, 3:50 PM)100% (Oct 7, 11:50 PM)30.33 "Hg (Oct 7, 11:50 PM)
Low34 °F (Oct 13, 6:50 AM)59% (Oct 20, 3:50 PM)29.30 "Hg (Oct 20, 4:20 AM)
Average48 °F90%29.77 "Hg
* Reported Oct 6 8:20 PM — Oct 21 8:50 PM, Sarpsborg, Weather by CustomWeather, © 2014

Note: Actual official high and low records may vary slightly from our data, if they occured in-between our weather recording intervals... More about our weather records

Advertising

Sarpsborg weather history for previous 24 hours

 ConditionsComfort  
Time TempWeatherWind HumidityBarometerVisibility
8:50 PM
Oct 21
48 °FLight rain. Passing clouds.15 mph94%29.47 "Hg6 mi
8:20 PM48 °FPartly cloudy.15 mph94%29.47 "HgN/A
7:50 PM50 °FLight rain. Partly cloudy.13 mph88%29.47 "HgN/A
7:20 PM50 °FLight rain. Passing clouds.13 mph88%29.45 "Hg6 mi
6:50 PM50 °FPartly sunny.13 mph88%29.45 "HgN/A
6:20 PM50 °FBroken clouds.14 mph88%29.45 "HgN/A
5:50 PM50 °FLight rain. Broken clouds.13 mph88%29.45 "Hg6 mi
5:20 PM50 °FLight rain. Broken clouds.13 mph88%29.45 "Hg5 mi
4:50 PM52 °FPartly sunny.14 mph82%29.47 "HgN/A
4:20 PM50 °FBroken clouds.12 mph94%29.47 "HgN/A
3:50 PM50 °FBroken clouds.12 mph94%29.47 "HgN/A
3:20 PM52 °FPartly sunny.13 mph88%29.47 "HgN/A
2:50 PM50 °FPartly sunny.12 mph94%29.47 "Hg5 mi
2:20 PM50 °FLight rain. Broken clouds.13 mph94%29.47 "Hg4 mi
1:50 PM50 °FLight rain. Partly sunny.12 mph94%29.50 "Hg4 mi
1:20 PM50 °FLight rain. Partly sunny.12 mph94%29.50 "Hg4 mi
12:50 PM50 °FDrizzle. Partly sunny.10 mph94%29.50 "Hg4 mi
12:20 PM50 °FLight rain. Broken clouds.7 mph94%29.50 "Hg5 mi
11:50 AM52 °FScattered clouds.8 mph88%29.50 "HgN/A
11:20 AM52 °FPassing clouds.10 mph88%29.53 "HgN/A
10:50 AM50 °FPassing clouds.9 mph88%29.53 "HgN/A
10:20 AM50 °FPassing clouds.12 mph88%29.50 "HgN/A
9:50 AM48 °FPassing clouds.9 mph94%29.50 "HgN/A
9:20 AM46 °FScattered clouds.9 mph100%29.50 "HgN/A
8:50 AM46 °FPassing clouds.12 mph93%29.50 "HgN/A
8:20 AM46 °FPassing clouds.10 mph93%29.50 "Hg6 mi
7:50 AM46 °FPassing clouds.13 mph100%29.50 "Hg5 mi
7:20 AM46 °FPassing clouds.12 mph100%29.50 "Hg6 mi
6:50 AM46 °FPassing clouds.14 mph100%29.50 "HgN/A
6:20 AM48 °FPartly cloudy.12 mph94%29.50 "HgN/A
5:50 AM48 °FMostly cloudy.10 mph100%29.50 "HgN/A
4:50 AM48 °FLow clouds.5 mph100%29.53 "HgN/A
4:20 AM48 °FLow clouds.3 mph100%29.53 "HgN/A
3:50 AM46 °FLow clouds.3 mph100%29.53 "HgN/A
3:20 AM46 °FMostly cloudy.6 mph100%29.53 "HgN/A
2:50 AM45 °FLow clouds.7 mph100%29.53 "HgN/A
2:20 AM45 °FMostly cloudy.2 mph93%29.53 "Hg5 mi
1:50 AM43 °FFog.2 mph100%29.53 "Hg1 mi
1:20 AM45 °FFog.1 mph100%29.53 "Hg0 mi
12:50 AM45 °FFog.3 mph100%29.53 "Hg1 mi
12:20 AM45 °FQuite cool.3 mph93%29.53 "Hg0 mi
11:50 PM
Oct 20
45 °FPassing clouds.2 mph100%29.53 "Hg1 mi
11:20 PM46 °FFog.3 mph100%29.50 "Hg1 mi
10:50 PM46 °FClear.3 mph100%29.53 "Hg10 mi
10:20 PM45 °FClear.5 mph100%29.50 "Hg10 mi
9:50 PM46 °FClear.3 mph100%29.50 "Hg10 mi
9:20 PM46 °FClear.1 mph93%29.50 "Hg10 mi
Weather by CustomWeather, © 2014

See weather overviewHow to use our weather pages